| time (UTC) | temp C | wind direction | speed KPH | gust KPH | rain 1hr cm | rain 24hr cm | rain mn cm | humidity % | barometer mb |
| 20260504010210 | 12 | 245 | 11.3 | 14.5 | 0.00 | 0.00 | 0.00 | 51 | 1010.0 |
| 20260504005709 | 12 | 245 | 16.1 | 16.1 | 0.00 | 0.00 | 0.00 | 51 | 1010.0 |
| 20260504005209 | 12 | 245 | 6.4 | 12.9 | 0.00 | 0.00 | 0.00 | 51 | 1010.0 |
| 20260504004711 | 12 | 245 | 11.3 | 11.3 | 0.00 | 0.00 | 0.00 | 51 | 1010.0 |
| 20260504004210 | 12 | 245 | 6.4 | 12.9 | 0.00 | 0.00 | 0.00 | 51 | 1010.0 |
| 20260504003709 | 12 | 245 | 12.9 | 12.9 | 0.00 | 0.00 | 0.00 | 52 | 1010.0 |
| 20260504003209 | 12 | 245 | 6.4 | 17.7 | 0.00 | 0.00 | 0.00 | 52 | 1010.0 |
| 20260504002709 | 11 | 245 | 6.4 | 11.3 | 0.00 | 0.00 | 0.00 | 52 | 1010.0 |
| 20260504002212 | 11 | 245 | 16.1 | 16.1 | 0.00 | 0.00 | 0.00 | 53 | 1010.0 |
| 20260504001709 | 11 | 245 | 9.7 | 14.5 | 0.00 | 0.00 | 0.00 | 54 | 1010.0 |
| 20260504001211 | 11 | 245 | 11.3 | 12.9 | 0.00 | 0.00 | 0.00 | 54 | 1010.0 |
| 20260504000710 | 11 | 245 | 8.0 | 9.7 | 0.00 | 0.00 | 0.00 | 55 | 1010.0 |
| 20260504000211 | 11 | 245 | 8.0 | 8.0 | 0.00 | 0.00 | 0.00 | 57 | 1010.0 |
| 20260503235709 | 11 | 245 | 6.4 | 8.0 | 0.00 | 0.00 | 0.00 | 57 | 1010.0 |
| 20260503235209 | 11 | 245 | 4.8 | 9.7 | 0.00 | 0.00 | 0.00 | 57 | 1010.0 |
| 20260503234709 | 11 | 245 | 6.4 | 8.0 | 0.00 | 0.00 | 0.00 | 58 | 1010.0 |
| 20260503234209 | 11 | 245 | 4.8 | 9.7 | 0.00 | 0.00 | 0.00 | 58 | 1010.0 |
| 20260503233709 | 11 | 245 | 4.8 | 12.9 | 0.00 | 0.00 | 0.00 | 57 | 1010.0 |
| 20260503233210 | 11 | 245 | 3.2 | 8.0 | 0.00 | 0.00 | 0.00 | 57 | 1010.0 |
| 20260503232710 | 11 | 245 | 8.0 | 9.7 | 0.00 | 0.00 | 0.00 | 57 | 1010.0 |
| 20260503232209 | 11 | 245 | 6.4 | 8.0 | 0.00 | 0.00 | 0.00 | 57 | 1010.0 |
| 20260503231711 | 11 | 245 | 4.8 | 11.3 | 0.00 | 0.00 | 0.00 | 57 | 1010.0 |
| 20260503231209 | 11 | 245 | 4.8 | 12.9 | 0.00 | 0.00 | 0.00 | 59 | 1010.0 |
| 20260503230709 | 11 | 245 | 4.8 | 11.3 | 0.00 | 0.00 | 0.00 | 60 | 1010.0 |
| 20260503230209 | 11 | 245 | 3.2 | 17.7 | 0.00 | 0.00 | 0.00 | 60 | 1010.0 |
| 20260503225709 | 11 | 245 | 8.0 | 12.9 | 0.00 | 0.00 | 0.00 | 60 | 1010.0 |
| 20260503225209 | 12 | 245 | 9.7 | 9.7 | 0.00 | 0.00 | 0.00 | 59 | 1010.0 |
| 20260503224710 | 12 | 245 | 4.8 | 11.3 | 0.00 | 0.00 | 0.00 | 57 | 1010.0 |
| 20260503224210 | 11 | 245 | 17.7 | 17.7 | 0.00 | 0.00 | 0.00 | 58 | 1010.0 |
| 20260503223710 | 11 | 245 | 8.0 | 9.7 | 0.00 | 0.00 | 0.00 | 58 | 1010.0 |
| 20260503223209 | 11 | 245 | 9.7 | 16.1 | 0.00 | 0.00 | 0.00 | 57 | 1010.0 |
| 20260503222709 | 11 | 245 | 4.8 | 12.9 | 0.00 | 0.00 | 0.00 | 58 | 1010.0 |
| 20260503222209 | 11 | 245 | 3.2 | 16.1 | 0.00 | 0.00 | 0.00 | 58 | 1010.0 |
| 20260503221710 | 11 | 245 | 6.4 | 19.3 | 0.00 | 0.00 | 0.00 | 59 | 1010.0 |
| 20260503221210 | 11 | 245 | 6.4 | 12.9 | 0.00 | 0.00 | 0.00 | 60 | 1011.0 |
| 20260503220709 | 11 | 245 | 9.7 | 14.5 | 0.00 | 0.00 | 0.00 | 59 | 1010.0 |
| 20260503220210 | 11 | 245 | 3.2 | 16.1 | 0.00 | 0.00 | 0.00 | 59 | 1010.0 |
| 20260503215709 | 11 | 245 | 8.0 | 16.1 | 0.00 | 0.00 | 0.00 | 59 | 1010.0 |
| 20260503215210 | 11 | 245 | 9.7 | 9.7 | 0.00 | 0.00 | 0.00 | 59 | 1010.0 |
| 20260503214709 | 11 | 245 | 9.7 | 9.7 | 0.00 | 0.00 | 0.00 | 59 | 1010.0 |
| 20260503214210 | 11 | 245 | 11.3 | 12.9 | 0.00 | 0.00 | 0.00 | 59 | 1010.0 |
| 20260503213709 | 11 | 245 | 9.7 | 12.9 | 0.00 | 0.00 | 0.00 | 58 | 1010.0 |
| 20260503213209 | 11 | 245 | 14.5 | 14.5 | 0.00 | 0.00 | 0.00 | 58 | 1010.0 |
| 20260503212709 | 11 | 245 | 8.0 | 12.9 | 0.00 | 0.00 | 0.00 | 58 | 1010.0 |
| 20260503212210 | 11 | 245 | 8.0 | 16.1 | 0.00 | 0.00 | 0.00 | 58 | 1010.0 |
| 20260503211711 | 11 | 245 | 11.3 | 12.9 | 0.00 | 0.00 | 0.00 | 57 | 1010.0 |
| 20260503211212 | 11 | 245 | 8.0 | 14.5 | 0.00 | 0.00 | 0.00 | 57 | 1010.0 |
| 20260503210709 | 11 | 245 | 3.2 | 16.1 | 0.00 | 0.00 | 0.00 | 57 | 1010.0 |
| 20260503210209 | 11 | 245 | 8.0 | 14.5 | 0.00 | 0.00 | 0.00 | 58 | 1010.0 |
| 20260503205709 | 11 | 245 | 14.5 | 19.3 | 0.00 | 0.00 | 0.00 | 58 | 1010.0 |
| 20260503205209 | 11 | 245 | 11.3 | 17.7 | 0.00 | 0.00 | 0.00 | 58 | 1010.0 |
| 20260503204709 | 11 | 245 | 6.4 | 19.3 | 0.00 | 0.00 | 0.00 | 58 | 1010.0 |
| 20260503204209 | 11 | 245 | 6.4 | 12.9 | 0.00 | 0.00 | 0.00 | 58 | 1010.0 |
| 20260503203710 | 11 | 245 | 6.4 | 20.9 | 0.00 | 0.00 | 0.00 | 58 | 1010.0 |
| 20260503203209 | 11 | 245 | 8.0 | 14.5 | 0.00 | 0.00 | 0.00 | 57 | 1010.0 |
| 20260503202709 | 11 | 245 | 9.7 | 11.3 | 0.00 | 0.00 | 0.00 | 58 | 1010.0 |
| 20260503202209 | 11 | 245 | 14.5 | 14.5 | 0.00 | 0.00 | 0.00 | 57 | 1011.0 |
| 20260503201709 | 11 | 245 | 17.7 | 17.7 | 0.00 | 0.00 | 0.00 | 56 | 1010.0 |
| 20260503201210 | 11 | 245 | 11.3 | 14.5 | 0.00 | 0.00 | 0.00 | 56 | 1011.0 |
| 20260503200709 | 11 | 245 | 11.3 | 11.3 | 0.00 | 0.00 | 0.00 | 56 | 1011.0 |
| 20260503200209 | 11 | 245 | 12.9 | 12.9 | 0.00 | 0.00 | 0.00 | 55 | 1011.0 |
| 20260503195709 | 12 | 245 | 9.7 | 14.5 | 0.00 | 0.00 | 0.00 | 54 | 1011.0 |
| 20260503195209 | 12 | 245 | 22.5 | 22.5 | 0.00 | 0.00 | 0.00 | 53 | 1011.0 |
| 20260503194709 | 12 | 245 | 8.0 | 17.7 | 0.00 | 0.00 | 0.00 | 53 | 1011.0 |
| 20260503194209 | 12 | 245 | 6.4 | 11.3 | 0.00 | 0.00 | 0.00 | 53 | 1011.0 |
| 20260503193709 | 12 | 245 | 4.8 | 20.9 | 0.00 | 0.00 | 0.00 | 53 | 1011.0 |
| 20260503193209 | 13 | 245 | 8.0 | 17.7 | 0.00 | 0.00 | 0.00 | 51 | 1011.0 |
| 20260503192710 | 12 | 245 | 12.9 | 19.3 | 0.00 | 0.00 | 0.00 | 52 | 1011.0 |
| 20260503192211 | 12 | 245 | 12.9 | 16.1 | 0.00 | 0.00 | 0.00 | 51 | 1011.0 |
| 20260503191710 | 12 | 245 | 6.4 | 9.7 | 0.00 | 0.00 | 0.00 | 51 | 1011.0 |
| 20260503191210 | 12 | 245 | 4.8 | 11.3 | 0.00 | 0.00 | 0.00 | 51 | 1011.0 |
| 20260503190709 | 12 | 245 | 19.3 | 19.3 | 0.00 | 0.00 | 0.00 | 50 | 1011.0 |
| 20260503190209 | 12 | 245 | 8.0 | 14.5 | 0.00 | 0.00 | 0.00 | 50 | 1011.0 |
| 20260503185709 | 12 | 245 | 12.9 | 19.3 | 0.00 | 0.00 | 0.00 | 49 | 1012.0 |
| 20260503185209 | 11 | 245 | 6.4 | 17.7 | 0.00 | 0.00 | 0.00 | 50 | 1012.0 |
| 20260503184709 | 11 | 245 | 8.0 | 12.9 | 0.00 | 0.00 | 0.00 | 50 | 1012.0 |
| 20260503184210 | 11 | 245 | 9.7 | 20.9 | 0.00 | 0.00 | 0.00 | 48 | 1012.0 |
| 20260503183709 | 12 | 245 | 4.8 | 17.7 | 0.00 | 0.00 | 0.00 | 46 | 1012.0 |
| 20260503183209 | 12 | 245 | 6.4 | 20.9 | 0.00 | 0.00 | 0.00 | 46 | 1012.0 |
| 20260503182709 | 12 | 245 | 6.4 | 24.1 | 0.00 | 0.00 | 0.00 | 45 | 1012.0 |
| 20260503182209 | 12 | 245 | 8.0 | 22.5 | 0.00 | 0.00 | 0.00 | 44 | 1012.0 |
| 20260503181709 | 12 | 245 | 9.7 | 14.5 | 0.00 | 0.00 | 0.00 | 43 | 1012.0 |
| 20260503181209 | 12 | 245 | 11.3 | 20.9 | 0.00 | 0.00 | 0.00 | 42 | 1012.0 |
| 20260503180709 | 12 | 245 | 6.4 | 6.4 | 0.00 | 0.00 | 0.00 | 42 | 1012.0 |
| 20260503180209 | 12 | 245 | 16.1 | 16.1 | 0.00 | 0.00 | 0.00 | 41 | 1012.0 |
| 20260503175709 | 12 | 245 | 9.7 | 16.1 | 0.00 | 0.00 | 0.00 | 42 | 1012.0 |
| 20260503175211 | 12 | 245 | 9.7 | 12.9 | 0.00 | 0.00 | 0.00 | 43 | 1012.0 |
| 20260503174709 | 12 | 245 | 6.4 | 8.0 | 0.00 | 0.00 | 0.00 | 46 | 1013.0 |
| 20260503174210 | 12 | 245 | 9.7 | 11.3 | 0.00 | 0.00 | 0.00 | 44 | 1013.0 |
| 20260503173709 | 12 | 245 | 16.1 | 16.1 | 0.00 | 0.00 | 0.00 | 48 | 1013.0 |
| 20260503173209 | 11 | 245 | 3.2 | 14.5 | 0.00 | 0.00 | 0.00 | 49 | 1013.0 |
| 20260503172709 | 11 | 245 | 4.8 | 11.3 | 0.00 | 0.00 | 0.00 | 53 | 1013.0 |
| 20260503172209 | 10 | 245 | 12.9 | 16.1 | 0.00 | 0.00 | 0.00 | 54 | 1013.0 |
| 20260503171709 | 10 | 245 | 6.4 | 17.7 | 0.00 | 0.00 | 0.00 | 58 | 1013.0 |
| 20260503171210 | 10 | 245 | 14.5 | 19.3 | 0.00 | 0.00 | 0.00 | 59 | 1013.0 |
| 20260503170710 | 10 | 245 | 6.4 | 6.4 | 0.00 | 0.00 | 0.00 | 61 | 1013.0 |
| 20260503170209 | 11 | 245 | 6.4 | 19.3 | 0.00 | 0.00 | 0.00 | 62 | 1013.0 |
| 20260503160209 | 10 | 245 | 6.4 | 17.7 | 0.00 | 0.00 | 0.00 | 58 | 1014.0 |
| 20260503150709 | 10 | 245 | 9.7 | 16.1 | 0.00 | 0.00 | 0.00 | 56 | 1014.0 |
| 20260503150209 | 10 | 245 | 4.8 | 12.9 | 0.00 | 0.00 | 0.00 | 54 | 1014.0 |
| 20260503140210 | 9 | 245 | 8.0 | 9.7 | 0.00 | 0.00 | 0.00 | 68 | 1014.0 |
| 20260503131209 | 7 | 245 | 9.7 | 20.9 | 0.00 | 0.00 | 0.00 | 73 | 1014.0 |
| 20260503130709 | 7 | 245 | 6.4 | 17.7 | 0.00 | 0.00 | 0.00 | 73 | 1014.0 |
| 20260503130210 | 7 | 245 | 8.0 | 9.7 | 0.00 | 0.00 | 0.00 | 75 | 1014.0 |
| 20260503120210 | 5 | 245 | 1.6 | 4.8 | 0.00 | 0.00 | 0.00 | 83 | 1014.0 |
| 20260503110709 | 2 | 245 | 0.0 | 0.0 | 0.00 | 0.00 | 0.00 | 86 | 1014.0 |
| 20260503110209 | 1 | 245 | 0.0 | 0.0 | 0.00 | 0.00 | 0.00 | 86 | 1014.0 |
| 20260503100209 | 0 | 245 | 0.0 | 0.0 | 0.00 | 0.00 | 0.00 | 85 | 1014.0 |
| 20260503090210 | 1 | 245 | 1.6 | 1.6 | 0.00 | 0.00 | 0.00 | 75 | 1015.0 |
| 20260503081209 | 1 | 245 | 0.0 | 0.0 | 0.00 | 0.00 | 0.00 | 76 | 1015.0 |
| 20260503080709 | 1 | 245 | 0.0 | 1.6 | 0.00 | 0.00 | 0.00 | 77 | 1015.0 |
| 20260503080209 | 1 | 245 | 0.0 | 0.0 | 0.00 | 0.00 | 0.00 | 78 | 1015.0 |
| 20260503072711 | 2 | 245 | 0.0 | 3.2 | 0.00 | 0.00 | 0.00 | 82 | 1015.0 |
| 20260503072210 | 2 | 245 | 1.6 | 3.2 | 0.00 | 0.00 | 0.00 | 83 | 1015.0 |
| 20260503071709 | 2 | 245 | 0.0 | 3.2 | 0.00 | 0.00 | 0.00 | 83 | 1015.0 |
| 20260503071210 | 2 | 245 | 0.0 | 3.2 | 0.00 | 0.00 | 0.00 | 84 | 1015.0 |
| 20260503070709 | 2 | 245 | 1.6 | 1.6 | 0.00 | 0.00 | 0.00 | 85 | 1015.0 |
| 20260503070209 | 2 | 245 | 0.0 | 0.0 | 0.00 | 0.00 | 0.00 | 85 | 1015.0 |
| 20260503060210 | 2 | 245 | 0.0 | 0.0 | 0.00 | 0.00 | 0.00 | 82 | 1015.0 |
| 20260503054709 | 2 | 245 | 0.0 | 0.0 | 0.00 | 0.00 | 0.00 | 80 | 1015.0 |
| 20260503054210 | 2 | 245 | 0.0 | 0.0 | 0.00 | 0.00 | 0.00 | 79 | 1015.0 |
| 20260503053709 | 2 | 245 | 0.0 | 0.0 | 0.00 | 0.00 | 0.00 | 78 | 1015.0 |
| 20260503053209 | 2 | 245 | 0.0 | 0.0 | 0.00 | 0.00 | 0.00 | 78 | 1015.0 |
| 20260503052709 | 2 | 245 | 0.0 | 0.0 | 0.00 | 0.00 | 0.00 | 77 | 1015.0 |
| 20260503052210 | 2 | 245 | 0.0 | 0.0 | 0.00 | 0.00 | 0.00 | 76 | 1015.0 |
| 20260503051709 | 2 | 245 | 0.0 | 0.0 | 0.00 | 0.00 | 0.00 | 74 | 1015.0 |
| 20260503051210 | 2 | 245 | 0.0 | 0.0 | 0.00 | 0.00 | 0.00 | 73 | 1015.0 |
| 20260503050709 | 2 | 245 | 0.0 | 0.0 | 0.00 | 0.00 | 0.00 | 73 | 1015.0 |
| 20260503050209 | 2 | 245 | 0.0 | 0.0 | 0.00 | 0.00 | 0.00 | 73 | 1015.0 |
| 20260503045709 | 2 | 245 | 0.0 | 0.0 | 0.00 | 0.00 | 0.00 | 73 | 1015.0 |
| 20260503045210 | 2 | 245 | 0.0 | 1.6 | 0.00 | 0.00 | 0.00 | 73 | 1015.0 |
| 20260503044709 | 2 | 245 | 0.0 | 1.6 | 0.00 | 0.00 | 0.00 | 73 | 1015.0 |
| 20260503044209 | 2 | 245 | 0.0 | 1.6 | 0.00 | 0.00 | 0.00 | 72 | 1015.0 |
| 20260503043709 | 3 | 245 | 0.0 | 0.0 | 0.00 | 0.00 | 0.00 | 72 | 1015.0 |
| 20260503043210 | 3 | 245 | 0.0 | 0.0 | 0.00 | 0.00 | 0.00 | 72 | 1015.0 |
| 20260503042709 | 3 | 245 | 0.0 | 0.0 | 0.00 | 0.00 | 0.00 | 72 | 1015.0 |
| 20260503042209 | 3 | 245 | 0.0 | 0.0 | 0.00 | 0.00 | 0.00 | 72 | 1015.0 |
| 20260503041710 | 3 | 245 | 0.0 | 1.6 | 0.00 | 0.00 | 0.00 | 71 | 1015.0 |
| 20260503041209 | 3 | 245 | 1.6 | 1.6 | 0.00 | 0.00 | 0.00 | 71 | 1016.0 |
| 20260503040709 | 3 | 245 | 1.6 | 1.6 | 0.00 | 0.00 | 0.00 | 71 | 1016.0 |
| 20260503040210 | 3 | 245 | 1.6 | 1.6 | 0.00 | 0.00 | 0.00 | 71 | 1016.0 |
| 20260503035709 | 4 | 245 | 0.0 | 1.6 | 0.00 | 0.00 | 0.00 | 70 | 1016.0 |
| 20260503035210 | 4 | 245 | 1.6 | 3.2 | 0.00 | 0.00 | 0.00 | 70 | 1016.0 |
| 20260503034709 | 4 | 245 | 0.0 | 1.6 | 0.00 | 0.00 | 0.00 | 70 | 1016.0 |
| 20260503034209 | 4 | 245 | 0.0 | 3.2 | 0.00 | 0.00 | 0.00 | 70 | 1016.0 |
| 20260503033710 | 4 | 245 | 1.6 | 4.8 | 0.00 | 0.00 | 0.00 | 71 | 1016.0 |
| 20260503033209 | 4 | 245 | 3.2 | 3.2 | 0.00 | 0.00 | 0.00 | 72 | 1016.0 |
| 20260503032709 | 5 | 245 | 0.0 | 0.0 | 0.00 | 0.00 | 0.00 | 72 | 1016.0 |
| 20260503032209 | 5 | 245 | 0.0 | 0.0 | 0.00 | 0.00 | 0.00 | 73 | 1016.0 |
| 20260503031710 | 5 | 245 | 0.0 | 0.0 | 0.00 | 0.00 | 0.00 | 73 | 1016.0 |
| 20260503031210 | 5 | 245 | 0.0 | 0.0 | 0.00 | 0.00 | 0.00 | 73 | 1016.0 |
| 20260503030709 | 5 | 245 | 1.6 | 1.6 | 0.00 | 0.00 | 0.00 | 73 | 1016.0 |
| 20260503030210 | 5 | 245 | 0.0 | 1.6 | 0.00 | 0.00 | 0.00 | 73 | 1016.0 |
| 20260503025709 | 5 | 245 | 0.0 | 0.0 | 0.00 | 0.00 | 0.00 | 73 | 1016.0 |
| 20260503025209 | 5 | 245 | 0.0 | 1.6 | 0.00 | 0.00 | 0.00 | 73 | 1016.0 |
| 20260503024709 | 5 | 245 | 1.6 | 1.6 | 0.00 | 0.00 | 0.00 | 73 | 1016.0 |
| 20260503024209 | 5 | 245 | 0.0 | 3.2 | 0.00 | 0.00 | 0.00 | 73 | 1016.0 |
| 20260503023710 | 5 | 245 | 0.0 | 1.6 | 0.00 | 0.00 | 0.00 | 72 | 1016.0 |
| 20260503023209 | 5 | 245 | 0.0 | 3.2 | 0.00 | 0.00 | 0.00 | 73 | 1016.0 |
| 20260503022709 | 5 | 245 | 0.0 | 0.0 | 0.00 | 0.00 | 0.00 | 73 | 1016.0 |
| 20260503022209 | 5 | 245 | 0.0 | 3.2 | 0.00 | 0.00 | 0.00 | 73 | 1016.0 |
| 20260503021709 | 5 | 245 | 1.6 | 1.6 | 0.00 | 0.00 | 0.00 | 73 | 1016.0 |
| 20260503021209 | 5 | 245 | 0.0 | 0.0 | 0.00 | 0.00 | 0.00 | 72 | 1016.0 |
| 20260503020709 | 5 | 245 | 1.6 | 1.6 | 0.00 | 0.00 | 0.00 | 72 | 1016.0 |
| 20260503020211 | 5 | 245 | 1.6 | 1.6 | 0.00 | 0.00 | 0.00 | 72 | 1016.0 |
| 20260503015710 | 5 | 245 | 0.0 | 1.6 | 0.00 | 0.00 | 0.00 | 72 | 1016.0 |
| 20260503015209 | 5 | 245 | 0.0 | 1.6 | 0.00 | 0.00 | 0.00 | 71 | 1016.0 |
| 20260503014709 | 5 | 245 | 3.2 | 3.2 | 0.00 | 0.00 | 0.00 | 71 | 1016.0 |
| 20260503014209 | 5 | 245 | 1.6 | 4.8 | 0.00 | 0.00 | 0.00 | 71 | 1016.0 |
| 20260503013709 | 5 | 245 | 0.0 | 3.2 | 0.00 | 0.00 | 0.00 | 71 | 1016.0 |
| 20260503013209 | 5 | 245 | 0.0 | 3.2 | 0.00 | 0.00 | 0.00 | 71 | 1016.0 |
| 20260503012709 | 5 | 245 | 1.6 | 6.4 | 0.00 | 0.00 | 0.00 | 71 | 1016.0 |
| 20260503012210 | 5 | 245 | 3.2 | 4.8 | 0.00 | 0.00 | 0.00 | 71 | 1016.0 |
| 20260503011709 | 5 | 245 | 3.2 | 4.8 | 0.00 | 0.00 | 0.00 | 71 | 1016.0 |
| 20260503011209 | 5 | 245 | 4.8 | 8.0 | 0.00 | 0.00 | 0.00 | 71 | 1016.0 |
| 20260503010709 | 5 | 245 | 1.6 | 4.8 | 0.00 | 0.00 | 0.00 | 71 | 1016.0 |